This demonstration page uses our WeatherBlox Daily Observations layout. Learn more.

Left ArrowRight Arrow

38.89511, -77.03637

Hourly Observations for December 14, 2018

Temp ( °F °C ) Dew Point ( °F °C ) Humidity (%) Winds ( mph kmh ) Pressure ( in mb ) Visibility ( mi km ) Precip ( " mm )
12:52 am 00:52 Mostly Cloudy 43 6.1 34 1.1 71 71 E 6 9 30.39 1029 10 16 0.00 0.00
1:52 am 01:52 Mostly Clear 42 5.6 34 1.1 73 73 NE 6 9 30.40 1030 10 16 0.00 0.00
2:52 am 02:52 Partly Cloudy 41 5 33 0.6 73 73 NE 5 7 30.40 1029 10 16 0.00 0.00
3:52 am 03:52 Mostly Cloudy 39 3.9 33 0.6 79 79 Calm 30.40 1029 10 16 0.00 0.00
4:52 am 04:52 Mostly Cloudy 38 3.3 33 0.6 83 83 NE 7 11 30.38 1029 10 16 0.00 0.00
5:52 am 05:52 Cloudy 39 3.9 35 1.7 86 86 ENE 6 9 30.41 1030 9 14 0.00 0.00
6:52 am 06:52 Cloudy 39 3.9 36 2.2 89 89 Calm 30.42 1030 9 14 0.00 0.00
7:52 am 07:52 Cloudy with Mist and Fog 40 4.4 37 2.8 89 89 E 5 7 30.44 1031 6 10 0.00 0.00
8:52 am 08:52 Cloudy with Mist and Fog 41 5 37 2.8 86 86 NNE 6 9 30.42 1030 5 8 0.00 0.00
9:52 am 09:52 Cloudy with Haze 43 6.1 38 3.3 82 82 NNE 6 9 30.43 1030 5 8 0.00 0.00
10:52 am 10:52 Cloudy with Mist and Fog 44 6.7 40 4.4 85 85 ENE 6 9 30.40 1029 4 6 0.00 0.00
11:52 am 11:52 Cloudy with Haze 47 8.3 40 4.4 77 77 NNE 3 6 30.37 1029 6 10 0.00 0.00
12:52 pm 12:52 Cloudy 48 8.9 40 4.4 74 74 Calm 30.36 1028 7 11 0.00 0.00
1:52 pm 13:52 Cloudy 47 8.3 40 4.4 77 77 NE 5 7 30.34 1027 7 11 0.00 0.00
2:52 pm 14:52 Cloudy 48 8.9 40 4.4 74 74 ENE 3 6 30.33 1027 7 11 0.00 0.00
3:52 pm 15:52 Cloudy 47 8.3 40 4.4 77 77 ENE 7 11 30.32 1027 7 11 0.00 0.00
4:52 pm 16:52 Cloudy with Light Rain 47 8.3 41 5 80 80 NE 6 9 30.32 1027 8 13 0.00 0.03
5:52 pm 17:52 Cloudy with Light Rain 47 8.3 43 6.1 86 86 NE 6 9 30.31 1026 6 10 0.02 0.51
6:52 pm 18:52 Cloudy with Light Rain 47 8.3 44 6.7 90 90 NE 8 13 30.30 1026 4 6 0.06 1.52
7:28 pm 19:28 Cloudy with Rain 47 8.3 44 6.7 90 90 NNE 8 13 30.30 1026 4 6 0.05 1.27
7:52 pm 19:52 Cloudy with Rain 47 8.3 44 6.7 90 90 NNE 8 13 30.29 1026 4 6 0.09 2.29
8:52 pm 20:52 Cloudy with Light Rain 47 8.3 44 6.7 90 90 NNE 8 13 30.26 1025 5 8 0.07 1.78
9:39 pm 21:39 Cloudy with Light Rain 47 8.3 44 6.7 90 90 NNE 8 13 30.24 1024 7 11 0.03 0.76
9:44 pm 21:44 Cloudy with Light Rain 48 8.9 44 6.7 86 86 NNE 9 15 30.24 1024 7 11 0.03 0.76
9:52 pm 21:52 Cloudy with Light Rain 48 8.9 44 6.7 86 86 NNE 9 15 30.23 1024 6 10 0.03 0.76
10:02 pm 22:02 Cloudy with Light Rain 48 8.9 44 6.7 86 86 NNE 7 11 30.24 1024 6 10 0.01 0.25
10:52 pm 22:52 Cloudy with Mist and Fog 48 8.9 45 7.2 89 89 NNE 8 13 30.21 1023 6 10 0.01 0.25
11:52 pm 23:52 Cloudy with Light Rain 48 8.9 45 7.2 89 89 NNE 10 17 30.18 1022 3 5 0.00 0.03
11:54 pm 23:54 Cloudy with Light Rain 48 8.9 45 7.2 89 89 N 9 15 30.18 1022 3 4 0.00 0.03

Powered by AerisWeather